Wind_Speed
5 7 6 4 6 6 11 8 8 5 4 4 2 6 11 14 11 4 5 7 8 17 20 28 26 25 22 20 18 19 21 21 21 20 19 19 17 17 17 19 17 16 11 15 13 12 15 14 14
5 6 4 9 6 10 8 7 8 10 3 8 10 11 11 10 5 4 4 5 9 18 20 27 27 24 22 20 19 20 21 21 23 20 18 18 19 17 14 12 18 14 13 13 12 14 16 15 15
6 5 5 4 9 12 9 4 5 2 2 6 4 5 8 6 7 5 9 7 10 18 19 25 27 23 21 19 19 20 22 22 23 24 22 20 18 18 16 14 12 12 14 13 14 16 16 15 14
4 3 4 7 13 11 7 7 1 9 7 2 5 8 4 6 7 11 9 3 12 17 19 26 26 23 20 18 18 20 22 24 24 27 27 23 20 18 17 16 14 14 14 15 15 17 14 11 12
4 3 3 6 12 10 8 9 12 11 13 9 11 9 6 10 12 11 7 4 12 18 20 24 25 24 21 19 17 19 23 22 22 23 24 23 22 20 23 20 17 16 19 17 17 15 13 12 10
7 4 6 9 12 6 1 9 13 13 12 8 8 7 3 7 16 14 8 4 10 17 21 23 25 25 21 18 17 19 21 23 24 24 24 27 22 21 24 21 19 20 19 19 19 15 13 14 12
9 9 12 16 12 15 8 7 7 10 13 6 11 6 3 11 16 14 9 3 8 16 20 21 23 26 23 20 19 20 21 23 23 23 22 23 21 22 23 21 18 19 16 17 17 18 15 14 13
11 9 16 14 13 16 6 9 6 6 8 11 4 3 4 14 16 15 10 6 7 17 19 20 21 25 26 23 22 22 21 23 22 24 20 21 21 22 21 21 22 20 17 17 17 19 17 16 16
6 7 11 14 14 8 5 9 6 8 17 13 10 11 11 13 19 16 14 10 9 17 18 22 24 26 24 22 25 24 24 25 24 23 23 23 23 23 19 20 25 22 19 18 16 19 20 16 16
10 9 9 7 5 8 13 13 16 16 18 22 21 19 9 20 18 18 16 14 14 16 21 23 26 28 27 26 22 26 26 28 27 27 24 27 26 23 17 26 24 23 19 18 15 16 16 18 18
1 6 7 2 5 8 13 17 16 17 17 20 21 21 21 20 20 19 18 16 16 18 21 25 29 31 29 29 27 28 28 29 30 30 29 30 26 20 24 25 24 25 21 20 18 16 20 16 17
4 4 6 6 7 9 10 14 13 18 25 21 19 19 17 19 19 20 21 20 19 17 21 23 30 34 34 35 35 33 33 31 34 34 34 33 32 25 30 29 27 27 24 24 19 19 21 21 20
4 3 5 5 6 10 12 15 15 27 24 19 13 13 19 23 24 23 22 22 22 22 19 26 28 33 39 40 40 37 35 35 31 32 35 36 36 33 32 34 30 28 28 25 20 21 20 20 20
4 8 9 5 7 10 9 17 17 8 6 9 13 21 22 21 21 22 22 21 20 21 21 20 29 33 41 45 49 45 41 38 36 35 38 39 38 37 36 36 33 30 30 27 25 23 23 23 25
5 6 6 5 5 10 13 14 12 12 9 13 20 21 19 18 16 15 16 18 19 21 23 24 23 30 36 46 50 48 46 45 43 43 38 42 41 40 37 39 37 33 33 29 26 24 25 27 24
4 4 7 3 5 2 8 11 13 17 18 22 19 17 15 13 9 8 10 13 15 18 22 24 25 26 33 39 49 55 54 53 49 46 44 37 42 43 36 41 42 37 33 34 31 29 28 26 25
2 8 12 11 4 5 7 16 20 28 21 18 16 14 10 8 7 7 9 12 15 17 18 21 24 29 28 37 41 52 51 57 54 56 50 46 41 40 43 44 46 43 41 37 34 31 30 29 29
11 10 10 14 9 14 18 23 21 26 17 14 11 7 8 8 9 11 13 14 17 18 19 20 21 24 29 31 40 47 52 40 61 57 55 52 48 46 45 44 45 46 43 41 38 34 33 31 30
8 13 18 16 15 11 14 25 23 21 11 9 6 8 9 9 10 11 13 16 19 20 21 21 22 23 25 33 34 41 49 43 57 60 62 57 54 50 49 47 46 44 47 46 40 38 37 36 37
11 17 15 10 18 16 19 28 23 10 8 6 10 10 12 13 14 17 18 21 24 25 26 25 24 24 24 33 39 32 39 50 46 53 49 47 60 52 50 52 49 44 48 48 44 46 43 41 40
14 10 14 17 25 14 11 16 2 5 5 8 12 13 13 15 19 23 25 30 31 31 30 28 27 27 28 28 39 45 43 36 45 51 57 55 50 55 54 53 51 49 53 53 51 49 48 45 44
11 5 14 18 14 5 10 7 14 3 6 10 9 13 15 19 24 27 34 41 40 39 32 29 28 29 30 29 32 41 47 45 37 53 55 54 55 53 56 52 52 50 54 55 55 52 50 48 48
8 17 17 15 11 10 2 4 7 13 8 14 16 14 18 23 29 38 45 45 39 33 30 31 34 32 31 30 31 33 44 50 50 39 45 56 55 58 52 50 50 56 51 51 55 57 53 53 47
13 16 11 4 4 4 2 3 9 6 13 18 20 21 25 37 41 43 42 39 41 42 42 41 37 35 32 31 31 31 33 45 50 45 36 51 56 56 50 50 51 55 51 56 53 59 52 54 56
13 11 4 3 2 4 2 9 11 14 14 11 15 29 37 40 40 39 40 43 40 39 38 37 35 36 31 30 30 28 28 30 40 43 41 46 45 52 52 48 52 54 55 57 54 56 56 60 54
5 4 3 5 6 12 16 7 5 15 8 12 31 34 39 35 36 42 40 39 38 38 36 36 35 35 31 29 29 27 26 26 37 43 43 43 46 51 48 49 54 62 56 52 56 57 60 59 55
1 1 3 4 8 6 6 11 17 1 13 23 30 36 34 32 38 38 36 36 37 36 36 35 35 33 31 28 26 26 24 25 32 43 35 35 40 41 48 37 55 57 57 58 58 56 62 57 53
1 3 3 3 6 7 6 13 9 14 21 20 25 32 35 39 40 36 36 37 38 35 34 31 30 32 29 27 24 23 21 23 23 27 42 33 43 45 49 49 49 52 54 53 54 55 56 57 56
3 2 2 2 4 4 7 9 10 12 18 22 26 36 33 36 37 37 37 40 36 34 31 28 27 25 24 22 21 20 19 19 23 31 28 31 32 35 33 34 34 45 43 46 48 50 49 49 49
5 4 4 3 2 6 7 10 10 15 20 26 33 33 32 34 36 37 39 39 37 34 29 26 23 19 19 19 16 13 16 16 21 26 27 25 26 24 28 26 30 34 37 38 42 42 44 39 33
Wind_Direction
346 329 305 264 241 235 255 228 248 267 248 94 316 292 315 313 291 345 325 204 164 170 191 194 197 199 198 191 189 183 185 184 175 179 178 174 171 167 169 185 176 177 189 145 153 157 148 139 137
354 342 274 265 252 242 245 208 226 240 343 311 279 273 255 269 17 339 358 232 177 176 199 196 199 204 199 196 195 193 191 189 183 180 187 191 190 184 180 180 194 194 148 152 145 140 145 140 137
32 5 286 260 245 258 286 68 278 30 285 329 299 329 307 354 16 4 329 276 181 199 195 196 201 206 205 202 203 200 197 190 191 184 188 196 192 194 189 171 173 172 159 143 151 142 135 136 140
12 20 278 260 260 257 299 317 324 320 306 316 310 302 311 44 360 330 324 259 177 207 191 200 205 210 213 210 211 208 202 200 192 195 196 201 201 195 172 178 176 177 150 154 152 134 128 147 149
245 29 287 258 267 288 286 282 299 292 300 294 316 286 312 23 5 338 326 240 188 206 199 209 210 214 214 217 219 211 202 199 195 189 187 194 195 190 174 182 181 173 155 158 155 143 151 153 160
221 202 234 242 262 239 242 346 316 300 293 309 302 314 348 29 11 357 338 248 198 219 203 215 216 217 219 221 216 211 202 191 193 189 191 196 196 181 178 185 189 167 168 163 157 155 159 164 171
249 241 242 271 267 265 285 347 308 325 299 320 321 284 272 9 353 355 347 276 204 235 205 223 217 217 221 224 216 207 200 201 196 198 194 192 186 184 185 190 183 165 173 171 165 163 164 168 164
235 239 263 243 257 262 27 347 346 339 290 316 317 298 339 354 349 347 345 304 234 244 217 224 218 216 218 221 214 209 200 196 196 189 194 191 188 186 194 194 172 177 178 179 178 178 172 168 161
221 245 249 262 265 296 23 344 291 302 285 272 282 283 306 335 329 332 333 316 268 243 234 219 225 215 211 210 211 211 202 196 199 196 198 200 197 193 202 197 177 180 189 187 191 188 186 176 167
225 240 273 17 358 307 316 309 309 308 291 281 283 282 280 321 324 321 314 301 291 273 247 230 222 223 220 209 211 210 203 196 197 198 201 201 203 194 205 183 184 190 190 197 196 190 175 172 167
223 268 22 338 343 315 302 298 303 286 277 281 295 298 302 309 311 306 301 296 287 276 262 247 229 226 224 212 210 217 208 202 203 199 203 204 200 196 192 190 191 195 196 201 200 181 169 167 172
267 303 323 330 324 309 296 307 282 273 274 288 291 296 302 312 311 305 301 294 292 282 268 262 241 229 228 228 224 225 205 215 205 205 205 204 204 194 196 194 195 200 199 204 193 177 172 172 171
262 332 297 289 302 306 298 283 286 283 282 285 281 292 298 298 300 298 294 288 284 280 277 266 257 248 227 229 225 223 221 213 217 206 207 208 205 204 201 193 200 201 201 206 187 183 181 176 171
324 288 275 286 253 296 287 293 294 274 317 279 284 296 296 296 298 296 296 291 285 279 272 268 261 254 241 230 228 228 224 218 216 210 214 208 208 206 201 196 203 200 203 200 188 191 182 181 191
306 298 245 192 325 303 316 284 226 270 304 292 280 284 292 299 304 303 303 299 293 284 277 270 257 261 249 241 231 226 228 225 216 211 216 212 208 204 205 199 205 202 204 202 195 186 188 196 194
315 248 343 64 7 337 343 293 303 323 305 289 291 293 298 300 305 320 330 327 317 304 289 276 265 254 262 244 238 226 228 225 221 212 211 214 212 206 208 200 207 205 196 203 201 195 195 197 194
99 315 318 321 281 303 270 292 291 305 299 291 288 288 287 288 297 306 321 327 329 322 311 293 277 254 250 260 246 240 227 225 219 220 214 214 216 208 208 205 207 209 208 210 207 203 202 196 190
321 320 314 307 302 317 291 287 295 302 297 286 285 273 260 274 290 301 308 316 316 318 314 307 292 276 253 260 254 243 238 226 221 230 214 216 218 218 209 207 209 212 209 214 210 206 199 201 196
307 301 301 303 327 310 287 297 298 299 289 274 265 257 262 273 289 300 308 317 318 317 310 307 299 286 268 252 252 252 237 237 222 225 232 227 216 218 215 213 212 214 210 213 214 209 206 195 196
303 301 311 306 324 320 300 294 294 277 266 278 286 270 271 283 292 300 304 313 313 311 309 303 296 290 278 259 247 253 251 242 232 210 225 206 215 218 221 218 216 217 212 215 214 205 202 200 202
314 298 325 311 320 302 313 288 275 279 232 270 277 275 282 286 300 308 309 312 311 306 304 296 292 288 280 271 256 246 250 254 229 223 218 222 237 219 224 221 221 218 217 214 213 210 211 206 198
308 345 312 310 318 307 357 294 315 329 274 302 297 280 280 301 309 307 310 310 307 302 295 290 287 285 278 273 263 253 252 246 235 225 219 227 223 229 224 224 222 222 221 217 215 216 216 215 208
281 317 302 297 292 307 139 257 283 294 311 342 335 311 299 309 313 309 310 309 305 300 292 287 288 284 277 272 264 259 253 247 247 249 223 220 222 221 221 226 225 223 228 219 224 215 217 216 220
295 304 311 268 283 260 285 278 286 343 335 328 333 326 316 314 311 309 308 307 303 298 293 289 283 279 275 271 265 260 258 250 249 264 206 208 218 221 225 229 225 227 228 226 226 222 224 220 221
350 340 348 296 253 293 121 299 260 313 333 335 328 326 318 316 314 313 310 308 304 299 294 290 283 279 274 270 265 261 256 253 250 253 238 207 213 218 221 223 225 226 230 237 229 226 227 227 220
4 9 32 305 316 301 302 239 274 338 359 330 332 323 320 316 318 314 309 306 304 301 295 289 283 279 275 269 265 263 257 246 237 232 227 221 223 234 225 224 232 228 231 230 234 229 227 223 224
53 352 350 273 252 268 245 276 286 85 329 332 331 327 321 321 322 318 315 310 307 303 297 291 282 277 270 266 265 262 255 242 227 225 227 225 221 230 228 235 225 228 224 229 234 227 224 220 228
275 346 236 182 302 298 274 308 300 336 330 338 338 331 327 325 324 322 320 316 313 307 301 294 285 277 272 263 258 260 257 247 231 220 231 232 223 231 215 222 220 223 219 218 220 218 218 220 221
166 185 219 280 264 291 309 299 348 316 339 342 339 330 324 326 327 328 325 326 323 317 310 303 290 276 267 261 256 254 251 234 220 218 224 228 234 222 229 232 224 217 220 219 222 220 218 219 218
245 231 193 232 246 252 282 271 278 326 345 341 334 322 328 330 332 331 331 332 333 331 327 317 298 271 255 246 246 249 242 211 216 216 218 231 229 228 234 231 227 225 219 219 220 214 214 209 203
Height
1492 1492 1493 1493 1491 1477 1470 1467 1467 1467 1468 1466 1470 1470 1468 1468 1466 1472 1467 1468 1468 1470 1468 1471 1474 1477 1481 1482 1485 1486 1491 1494 1496 1499 1501 1502 1504 1507 1509 1511 1512 1514 1515 1517 1518 1519 1520 1521 1523
1492 1493 1492 1488 1484 1474 1464 1459 1469 1467 1467 1470 1470 1469 1467 1465 1468 1470 1470 1467 1472 1471 1468 1471 1474 1477 1480 1484 1485 1487 1489 1493 1496 1498 1500 1502 1504 1506 1508 1511 1513 1515 1516 1518 1519 1520 1521 1523 1525
1493 1493 1493 1485 1478 1477 1467 1461 1464 1469 1473 1470 1468 1471 1469 1466 1471 1472 1469 1468 1470 1472 1470 1473 1475 1477 1481 1484 1486 1487 1490 1492 1496 1497 1500 1502 1504 1506 1507 1510 1513 1515 1516 1518 1520 1521 1523 1525 1526
1493 1496 1495 1488 1477 1467 1466 1464 1468 1471 1471 1471 1473 1470 1470 1472 1473 1471 1469 1469 1471 1471 1472 1473 1476 1478 1481 1484 1486 1488 1489 1491 1494 1497 1498 1500 1503 1505 1508 1509 1512 1514 1516 1520 1521 1522 1525 1527 1527
1492 1497 1498 1489 1478 1472 1469 1473 1473 1475 1474 1472 1474 1470 1470 1473 1474 1472 1470 1471 1473 1471 1473 1474 1476 1479 1480 1483 1485 1487 1489 1490 1492 1495 1498 1499 1502 1504 1507 1508 1511 1512 1515 1519 1521 1524 1526 1528 1529
1493 1495 1490 1490 1482 1478 1475 1477 1478 1475 1474 1475 1474 1473 1472 1473 1473 1472 1471 1471 1473 1472 1473 1473 1475 1477 1480 1481 1483 1486 1488 1491 1492 1495 1498 1500 1501 1504 1506 1508 1510 1512 1515 1516 1519 1523 1526 1528 1529
1493 1485 1487 1481 1474 1472 1470 1480 1479 1477 1478 1476 1478 1473 1473 1471 1472 1472 1471 1472 1473 1471 1473 1472 1474 1476 1479 1481 1482 1483 1487 1491 1493 1494 1497 1499 1502 1504 1506 1509 1510 1512 1516 1518 1520 1522 1524 1527 1530
1491 1488 1483 1475 1477 1476 1480 1480 1480 1482 1480 1479 1479 1472 1473 1472 1472 1471 1470 1473 1473 1471 1472 1472 1473 1474 1477 1479 1481 1482 1484 1488 1492 1494 1497 1500 1503 1504 1506 1509 1511 1513 1515 1518 1520 1521 1524 1525 1527
1492 1486 1477 1472 1470 1471 1480 1482 1481 1482 1480 1477 1478 1475 1474 1472 1471 1471 1471 1471 1471 1470 1471 1471 1472 1474 1476 1478 1479 1482 1482 1485 1491 1494 1496 1499 1501 1503 1507 1508 1510 1512 1515 1517 1519 1521 1522 1525 1527
1488 1480 1474 1482 1482 1484 1485 1485 1483 1480 1477 1474 1473 1471 1470 1471 1470 1471 1470 1471 1471 1469 1468 1469 1470 1471 1473 1476 1478 1480 1481 1483 1485 1490 1493 1495 1499 1501 1504 1508 1510 1511 1514 1516 1518 1519 1522 1525 1527
1486 1480 1485 1484 1489 1491 1488 1484 1482 1481 1474 1472 1470 1471 1471 1470 1468 1469 1469 1469 1468 1468 1466 1465 1467 1468 1470 1471 1475 1476 1478 1480 1483 1484 1488 1491 1495 1500 1503 1505 1507 1510 1512 1515 1517 1518 1521 1525 1527
1489 1489 1489 1488 1490 1490 1487 1486 1481 1477 1471 1470 1469 1469 1467 1465 1465 1465 1465 1463 1463 1462 1463 1461 1462 1463 1465 1468 1468 1471 1475 1476 1478 1481 1483 1486 1491 1496 1497 1502 1505 1507 1511 1511 1515 1519 1521 1522 1526
1490 1491 1492 1492 1492 1490 1489 1484 1479 1471 1469 1468 1468 1467 1466 1464 1462 1462 1461 1458 1458 1458 1458 1457 1456 1457 1458 1461 1462 1464 1467 1470 1472 1477 1478 1481 1484 1490 1494 1497 1501 1504 1505 1509 1514 1516 1520 1522 1523
1494 1493 1491 1491 1491 1489 1488 1479 1477 1464 1465 1467 1467 1465 1462 1459 1458 1457 1455 1453 1453 1452 1452 1452 1451 1451 1450 1452 1453 1455 1459 1462 1467 1470 1472 1475 1479 1483 1489 1494 1496 1500 1501 1505 1510 1513 1516 1519 1520
1495 1490 1484 1489 1488 1486 1487 1466 1468 1463 1464 1465 1462 1460 1458 1456 1455 1453 1451 1449 1448 1447 1446 1445 1445 1445 1444 1444 1446 1446 1449 1454 1456 1461 1464 1467 1472 1477 1481 1487 1491 1494 1497 1502 1505 1510 1513 1514 1518
1489 1488 1482 1478 1485 1484 1487 1469 1457 1461 1460 1456 1455 1453 1452 1452 1451 1449 1447 1446 1444 1442 1440 1439 1438 1439 1437 1437 1438 1435 1440 1443 1448 1451 1455 1459 1464 1470 1474 1479 1484 1488 1494 1495 1501 1503 1507 1511 1515
1484 1488 1485 1484 1481 1485 1484 1471 1460 1458 1453 1450 1449 1448 1449 1449 1448 1447 1446 1444 1442 1439 1436 1433 1432 1430 1432 1431 1432 1431 1428 1433 1438 1442 1446 1451 1457 1462 1466 1471 1475 1481 1487 1490 1495 1499 1503 1506 1510
1498 1495 1490 1487 1480 1480 1477 1466 1453 1450 1447 1446 1445 1446 1447 1446 1445 1445 1443 1441 1439 1436 1433 1429 1426 1425 1425 1423 1423 1423 1424 1417 1425 1431 1428 1440 1447 1453 1458 1463 1467 1474 1480 1485 1488 1494 1497 1503 1506
1509 1503 1493 1482 1480 1482 1471 1462 1450 1444 1443 1442 1442 1442 1442 1443 1443 1442 1440 1438 1435 1432 1428 1425 1421 1418 1418 1415 1414 1414 1412 1415 1417 1418 1426 1430 1435 1443 1449 1453 1460 1465 1472 1477 1482 1487 1491 1496 1500
1503 1495 1486 1480 1478 1482 1468 1453 1443 1438 1439 1440 1440 1440 1441 1441 1440 1439 1437 1434 1431 1427 1424 1420 1416 1413 1410 1408 1407 1405 1406 1405 1409 1408 1414 1423 1419 1432 1439 1446 1449 1457 1465 1470 1475 1478 1484 1488 1494
1500 1494 1492 1492 1480 1472 1469 1441 1428 1431 1438 1440 1441 1441 1441 1440 1438 1436 1433 1430 1426 1422 1418 1413 1409 1406 1402 1400 1398 1397 1395 1398 1394 1403 1401 1410 1417 1419 1430 1438 1441 1449 1456 1459 1464 1470 1475 1479 1487
1502 1497 1495 1492 1486 1475 1472 1462 1435 1431 1435 1434 1436 1438 1438 1437 1435 1432 1428 1423 1419 1414 1409 1405 1401 1397 1394 1393 1390 1389 1388 1389 1385 1392 1392 1399 1407 1413 1422 1428 1432 1439 1446 1452 1457 1465 1469 1472 1477
1503 1497 1495 1490 1487 1482 1465 1474 1437 1427 1429 1431 1434 1435 1436 1435 1432 1426 1420 1413 1408 1404 1400 1396 1393 1388 1385 1383 1382 1381 1379 1380 1382 1384 1384 1388 1397 1403 1407 1418 1424 1430 1437 1444 1448 1455 1459 1465 1470
1507 1493 1484 1486 1484 1481 1464 1469 1442 1432 1437 1434 1435 1436 1434 1431 1425 1419 1413 1406 1400 1395 1390 1386 1382 1377 1376 1374 1372 1372 1371 1372 1375 1373 1366 1374 1388 1396 1401 1409 1416 1421 1427 1434 1440 1448 1450 1455 1459
1503 1496 1481 1478 1474 1464 1467 1467 1445 1435 1435 1438 1437 1435 1432 1426 1419 1412 1405 1398 1391 1386 1381 1376 1372 1367 1366 1364 1363 1363 1363 1364 1366 1369 1371 1374 1380 1389 1395 1400 1407 1413 1418 1424 1431 1436 1441 1448 1449
1510 1512 1504 1499 1475 1471 1467 1467 1438 1435 1439 1438 1439 1436 1429 1421 1414 1406 1398 1391 1384 1377 1371 1366 1362 1358 1357 1355 1353 1355 1356 1357 1360 1365 1366 1368 1377 1383 1388 1395 1399 1404 1409 1417 1422 1423 1429 1436 1441
1511 1508 1513 1514 1497 1497 1458 1443 1430 1434 1432 1434 1434 1430 1424 1417 1410 1400 1391 1383 1375 1368 1361 1356 1351 1348 1347 1346 1345 1347 1347 1350 1353 1358 1363 1366 1372 1377 1382 1386 1392 1392 1396 1406 1411 1415 1420 1428 1434
1514 1516 1511 1511 1499 1483 1449 1445 1429 1431 1430 1431 1427 1425 1419 1412 1403 1394 1385 1376 1367 1359 1351 1345 1341 1338 1336 1336 1337 1340 1341 1343 1347 1353 1358 1363 1367 1371 1371 1378 1385 1385 1391 1397 1404 1409 1414 1421 1426
1511 1512 1516 1514 1504 1491 1474 1440 1431 1434 1430 1430 1426 1423 1415 1407 1398 1389 1380 1370 1360 1351 1343 1336 1332 1329 1328 1329 1330 1334 1336 1337 1343 1348 1354 1359 1361 1364 1371 1375 1376 1379 1389 1393 1399 1403 1410 1417 1424
1507 1509 1508 1509 1495 1494 1494 1462 1434 1430 1431 1433 1429 1421 1414 1407 1396 1386 1376 1365 1355 1345 1336 1328 1323 1320 1321 1323 1325 1328 1331 1334 1339 1345 1350 1354 1359 1363 1365 1372 1375 1380 1385 1391 1397 1403 1410 1417 1423